Back to catalog

GB 2

AliveCommunicationsLEO
NORAD 14144·PAYLOAD·🇺🇸 United States

Launched Jun 9, 1983 from Vandenberg Space Force Base

Loading…

Next Passes (next 24 hours)

TLE

FreshSource: Space-Track

Epoch: Sep 14, 2026, 13:48 UTC

1 14144U 83056D   26257.57547884  .00002828  00000-0  38426-3 0  9992
2 14144  63.3164  11.4171 0714864 133.3644 232.9282 13.79065725368277

Track GB 2 in real time with AllMySat

Download on the App Store